Terminal Aerodrome Forecast
Issued by NWS

Home | Current Version | Previous Version | Text Only | Print | Product List | Glossary On
Versions: 1 2 3 4 5 6 7 8 9 10 11 12 13
000
FTUS42 TJSJ 201100
TAFJMZ
TAF
TJMZ 201130Z 2012/2112 VRB04KT P6SM SKC
     FM201530 27008KT P6SM SCT025
     FM201700 27010KT P6SM VCTS BKN040CB
      TEMPO 2017/2021 4SM -TSRA BR BKN015CB
     FM202200 06006KT P6SM SCT025
      AMD NOT SKED TIL 201600=

USA.gov is the U.S. government's official web portal to all federal, state and local government web resources and services.